Regional Weather Roundup
Issued by NWS Bismarck, ND

Home | Current Version | Previous Version | Text Only | Print | Product List | Glossary On
Versions: 1 2 3 4 5 6 7 8 9 10 11 12 13 14 15 16 17 18 19 20 21 22 23 24 25 26 27 28 29 30 31 32 33 34 35 36 37 38 39 40 41 42 43 44 45 46 47 48 49 50
000
ASUS43 KBIS 120920
RWRBIS

NWR BROADCAST TEXT
NATIONAL WEATHER SERVICE BISMARCK ND
400 AM CDT SAT JUL 12 2014

NOTE: "FAIR" INDICATES FEW OR NO CLOUDS BELOW 12,000 FEET WITH NO
SIGNIFICANT WEATHER AND/OR OBSTRUCTIONS TO VISIBILITY.


CITY           SKY/WX    TMP DP  RH WIND       PRES   REMARKS
WILLISTON      CLEAR     54  51  90 N5        30.11S
MINOT          PTCLDY    56  53  90 SW6       30.07F
MINOT AFB      PTCLDY    55  55  99 W5        30.07S
BISMARCK       CLOUDY    63  58  83 E3        30.07F
DICKINSON      CLOUDY    62  57  83 E3        30.09F
GARRISON         N/A     57  54  89 N5        30.08F
HETTINGER ARPT CLOUDY    61  58  90 SE5       30.12S
JAMESTOWN      MOCLDY    60  56  86 N3        30.05F
CARRINGTON     FAIR      57  57 100 NW8       30.07F
CROSBY           N/A     54  54 100 SW5       30.10F
HARVEY         FAIR      54  54 100 W3        30.07S
HAZEN          PTSUNNY   54  54 100 S3        30.09S
LINTON         FAIR      64  59  82 SE3       30.07S
MANDAN         CLOUDY    63  57  82 N7        30.08S
RUGBY          FAIR      54  54 100 CALM      30.05F
STANLEY          N/A     52  52 100 W3        30.11S
TIOGA          FAIR      48  48 100 CALM      30.14S
WATFORD CITY   PTSUNNY   54  54 100 CALM      30.09S
$$

CITY           SKY/WX    TMP DP  RH WIND       PRES   REMARKS
GRAND FORKS    CLEAR     57  54  89 W7        30.02S
GRAND FORKS AF CLEAR     58  58  99 NW6       30.03F
DEVILS LAKE    PTCLDY    55  52  88 CALM      30.04S
FARGO          PTCLDY    61  57  87 N5        30.02S
CANDO          FAIR      54  50  87 NW3       30.06F
CAVALIER       FAIR      57  52  82 NW6       30.02S
GRAFTON        FAIR      55  55 100 W6        30.02S
GWINNER        SUNNY     64  63  94 N3        30.06S
LANGDON        FAIR      50  48  93 CALM      30.05S
ROLLA          CLOUDY    54  54 100 W3        30.07F
WALHALLA         N/A     55  55 100 CALM        N/A
$$

CITY           SKY/WX    TMP DP  RH WIND       PRES   REMARKS
ABERDEEN       CLOUDY    67  58  72 NE9       30.04S
MOBRIDGE       CLOUDY    67  59  75 NE8       30.03S
BUFFALO          N/A     61  58  90 E14       30.04F
RAPID CITY     MOCLDY    62  58  86 CALM      30.10F
GLASGOW        MOCLDY    60  54  80 S3        30.13R
SIDNEY         PTCLDY    59  52  77 CALM      30.13R
WOLF POINT     CLEAR     55  51  86 CALM      30.12S
GLENDIVE       MOCLDY    63  52  67 NE6       30.13F
MILES CITY     MOCLDY    62  60  93 NE8       30.09F
BAKER          CLOUDY    61  59  93 SE12      30.13F
$$

CITY           SKY/WX    TMP DP  RH WIND       PRES   REMARKS
BILLINGS       MOCLDY    65  51  60 N6        30.15F
GREAT FALLS    CLEAR     56  51  84 CALM      30.18R
REGINA         PTCLDY    52  50  93 W5        30.09F
ESTEVAN        CLEAR     54  52  94 W2        30.09F
$$




USA.gov is the U.S. government's official web portal to all federal, state and local government web resources and services.